Location: Gwatt
(46.7204°N, 7.6223°E)
Time: 08:44:23
(UTC+00:00)

Vanguard 2 - Pass Details

Date: 30 January 2021
Orbit: 552 x 2938 km, 32.9° (Epoch: 24 February)

Event Time Altitude Azimuth Distance (km) Brightness Sun altitude
Rises 16:20:14 0° 241° (WSW) 2,799 14.5 0.7°
Reaches altitude 10° 16:23:57 10° 206° (SSW) 1,817 10.4 0.1°
Maximum altitude 16:25:18 11° 186° (S) 1,728 9.8 -0.1°
Drops below altitude 10° 16:26:40 10° 165° (SSE) 1,846 9.7 -0.3°
Sets 16:30:33 0° 131° (SE) 2,920 10.3 -0.9°
